[[{"header":{"parameterUnit":"m.s-1","parameterCategory":1,"la1":30.2991,"la2":30.254,"lo1":-89.0895,"lo2":-89.0444,"dy":0.0017,"dx":0.0017,"nx":28,"ny":28,"refTime":"2025-11-07T09:00:00:Z","depth":0,"parameterNumber":2,"parameterNumberName":"U-component_of_WINDS"},"data":[0,0,0,0,0,0,0,0,0,0,0,0,0,0,0,0,0,0,0,0,0,0,0,0,0,0,0,0,0,0,0,0,0,0,0,0,0,0,0,0,0,0,0,0,0,0,0,0,0,0,0,0,0,0,0,0,0,0,3.6974,3.6975,0,3.7067,3.7068,3.7069,3.6983,3.6979,3.6976,3.6973,3.7071,3.7077,3.7083,0,0,0,0,0,0,0,0,0,0,0,0,0,3.6725,3.673,3.6974,3.6975,3.6976,3.7067,3.7068,3.707,3.6983,3.6979,3.6975,3.6971,3.7069,3.7076,3.7083,0,0,0,0,0,0,0,0,0,0,0,0,0,3.6827,3.6732,3.6974,3.6944,3.6942,3.7067,3.7068,3.707,3.6984,3.6979,3.6974,3.6969,3.7067,3.7076,3.7084,3.7244,0,0,3.7111,3.7115,0,0,0,0,0,0,0,0,3.6822,3.6837,3.6947,3.6946,3.6945,3.7008,3.7017,3.7128,3.6986,3.6969,3.6972,3.6966,3.7055,3.7064,3.7093,3.7248,3.7253,3.7112,3.7118,3.7121,3.7124,0,0,0,0,0,0,0,3.6815,3.6832,3.7011,3.6949,3.6947,3.6927,3.6936,3.7037,3.704,3.697,3.6964,3.6976,3.7053,3.7085,3.7095,3.7254,3.7112,3.712,3.7125,3.7129,3.7545,3.7551,0,0,0,0,0,0,3.681,3.6827,3.7008,3.7014,3.6869,3.6936,3.6946,3.6993,3.7039,3.704,3.698,3.6971,3.7073,3.7085,3.7098,3.7288,3.7121,3.713,3.7135,3.754,3.7547,3.7553,0,0,0,0,0,0,3.6805,3.6827,3.7004,3.6919,3.694,3.6946,3.7,3.6998,3.7029,3.7046,3.7047,3.7012,3.7069,3.7086,3.7208,3.729,3.7134,3.7142,3.7533,3.7542,3.755,3.7669,0,0,0,0,0,0,3.6798,3.6826,3.6886,3.6921,3.6944,3.7112,3.7005,3.7003,3.7044,3.7034,3.7076,3.7079,3.7066,3.7195,3.7217,3.7299,3.7148,3.7525,3.7537,3.7547,3.7658,3.768,3.77,0,0,0,0,0,3.679,3.6916,3.6889,3.6911,3.7019,3.7117,3.713,3.7112,3.7051,3.7112,3.7123,3.7077,3.7278,3.7209,3.7232,3.7319,3.752,3.7534,3.7546,3.7648,3.7676,3.7699,0,0,0,0,0,0,3.6891,3.692,3.689,3.7031,3.7072,3.7102,3.7177,3.7143,3.7202,3.719,3.7166,3.7177,3.7306,3.7325,3.7247,3.7476,3.7389,3.7408,3.7459,3.7485,3.7506,3.7499,3.7156,0,0,0,0,0,3.693,3.7006,3.7027,3.7149,3.7171,3.7171,3.7213,3.7196,3.7238,3.7255,3.7274,3.7318,3.739,3.7439,3.7507,3.766,3.7668,3.7731,3.7752,3.777,3.7786,3.7869,3.7897,3.7595,3.7595,3.7595,0,0,3.7011,3.7036,3.7085,3.7171,3.72,3.728,3.7186,3.7275,3.7335,3.7268,3.7385,3.7401,3.7448,3.7587,3.7649,3.7606,3.7871,3.7786,3.78,3.7807,3.7885,3.7914,3.7939,3.7604,3.7603,3.7601,0,0,3.7199,3.7225,3.733,3.7362,3.7407,3.7407,3.7432,3.7468,3.7476,3.7592,3.7544,3.7615,3.7741,3.7776,3.7811,3.8014,3.7974,3.8037,3.8148,3.8229,3.8253,3.8273,3.8346,3.8373,3.8053,3.8053,3.8053,0,3.7294,3.7411,3.7389,3.7481,3.7521,3.7464,3.757,3.7603,3.7669,3.7698,3.7649,3.7806,3.7833,3.7979,3.8029,3.8059,3.8088,3.8031,3.8251,3.8272,3.8291,3.836,3.8387,3.806,3.8059,3.8059,3.8058,0,3.7526,3.7609,3.7688,3.7753,3.7801,3.79,3.7894,3.7946,3.7925,3.793,3.805,3.8081,3.8154,3.8188,3.8168,3.8332,3.8304,3.8254,3.8166,3.8327,3.8392,3.8418,3.8071,3.8068,3.8066,3.8064,0,0,3.778,3.7831,3.7861,3.7889,3.7936,3.8,3.8098,3.8168,3.8214,3.8262,3.8343,3.8451,3.8405,3.8444,3.8428,3.85,3.8659,3.844,3.8441,3.848,3.8842,3.888,3.8911,3.8633,3.8638,3.8642,3.8838,0,3.797,3.8137,3.812,3.828,3.8357,3.8305,3.8389,3.8428,3.8436,3.8503,3.8511,3.8588,3.8521,3.8545,3.8613,3.8625,3.8732,3.8611,3.871,3.8714,3.8699,3.8944,3.8984,3.9168,3.8863,3.8868,3.8871,0,3.8213,3.8269,3.8436,3.8472,3.8503,3.858,3.8644,3.8708,3.8752,3.8752,3.8797,3.8769,3.8868,3.8779,3.8916,3.8834,3.8874,3.8886,3.8893,3.8901,3.8802,3.896,3.9226,3.9253,3.891,3.8907,3.8904,0,3.8381,3.8499,3.8614,3.864,3.8685,3.874,3.8761,3.8799,3.8843,3.89,3.8928,3.8996,3.9033,3.9087,3.9079,3.9015,3.9219,3.9129,3.9223,3.9223,3.9268,3.9265,3.9544,3.9294,3.9294,3.9293,3.9293,0,3.8595,3.8699,3.869,3.8761,3.8877,3.8858,3.8974,3.8988,3.9023,3.9097,3.9056,3.9127,3.9112,3.9183,3.9177,3.9292,3.9309,3.9313,3.931,3.9316,3.9316,3.9342,3.9329,3.93,3.9299,3.9297,3.9296,0,3.8802,3.88,3.8922,3.8955,3.8965,3.905,3.9078,3.9145,3.915,3.9244,3.9265,3.9273,3.9354,3.9351,3.9443,3.944,3.9581,3.9563,3.9566,3.9562,3.9656,3.9648,3.9962,4.0002,3.9726,3.9728,3.9731,0,3.8938,3.9017,3.9058,3.9104,3.9129,3.9204,3.9248,3.9233,3.9281,3.9337,3.9399,3.9476,3.9537,3.9669,3.9683,3.9754,3.9738,3.9843,3.9749,3.9753,3.974,3.9735,3.9743,3.9862,3.9865,3.9868,3.987,0,3.918,3.9175,3.924,3.9306,3.936,3.9411,3.9458,3.9499,3.9488,3.9545,3.9627,3.9674,3.9768,3.9846,3.9914,3.9937,3.9903,3.99,3.9925,3.9932,3.993,3.9933,3.9616,3.9892,3.989,3.9888,3.9887,3.9886,3.9355,3.9423,3.9463,3.9537,3.9571,3.9616,3.9681,3.9694,3.9762,3.9837,3.9824,3.9916,3.9959,4.0046,4.0076,4.0148,4.0111,4.0148,4.0157,4.0167,4.0177,3.9919,4.0161,4.016,4.0159,4.0159,4.0158,0,3.9595,3.9618,3.9686,3.9753,3.9812,3.9774,3.9824,3.9876,3.9958,4.0,4.006,4.0155,4.0231,4.0252,4.0324,4.0379,4.0365,4.0398,4.0394,4.04,4.0206,4.0177,4.0408,4.0408,4.0408,4.0408,4.0408,4.0408,3.9726,3.9839,3.984,3.997,3.9993,4.0082,4.0114,4.0156,4.0189,4.0297,4.0359,4.0372,4.0406,4.0481,4.0549,4.0553,4.0582,4.0622,4.062,4.0439,4.0414,4.039,4.0362,4.0628,4.0629,4.0808,4.0809,4.0811]},{"header":{"parameterUnit":"m.s-1","parameterCategory":1,"la1":30.2991,"la2":30.254,"lo1":-89.0895,"lo2":-89.0444,"dy":0.0017,"dx":0.0017,"nx":28,"ny":28,"refTime":"2025-11-07T09:00:00:Z","depth":0,"parameterNumber":3,"parameterNumberName":"V-component_of_WINDS"},"data":[0,0,0,0,0,0,0,0,0,0,0,0,0,0,0,0,0,0,0,0,0,0,0,0,0,0,0,0,0,0,0,0,0,0,0,0,0,0,0,0,0,0,0,0,0,0,0,0,0,0,0,0,0,0,0,0,0,0,1.361,1.361,0,1.3667,1.3668,1.3668,1.3667,1.3666,1.3665,1.3665,1.3722,1.3724,1.3727,0,0,0,0,0,0,0,0,0,0,0,0,0,1.3497,1.3499,1.361,1.361,1.3611,1.3667,1.3668,1.3668,1.3667,1.3666,1.3665,1.3664,1.3721,1.3724,1.3727,0,0,0,0,0,0,0,0,0,0,0,0,0,1.3549,1.3499,1.3609,1.3617,1.3618,1.3667,1.3668,1.3669,1.3667,1.3666,1.3665,1.3664,1.3721,1.3724,1.3727,1.3771,0,0,1.3738,1.3739,0,0,0,0,0,0,0,0,1.3546,1.3553,1.3615,1.3617,1.3618,1.3659,1.3649,1.3703,1.3667,1.3649,1.3665,1.3663,1.3702,1.3707,1.372,1.3774,1.3777,1.3738,1.374,1.3741,1.3742,0,0,0,0,0,0,0,1.3542,1.3551,1.3632,1.3616,1.3618,1.3617,1.3623,1.3659,1.3681,1.365,1.365,1.3657,1.3702,1.3717,1.3721,1.3777,1.3738,1.3741,1.3743,1.3744,1.387,1.3871,0,0,0,0,0,0,1.3537,1.3548,1.363,1.3634,1.3579,1.362,1.3627,1.3647,1.3681,1.3685,1.3658,1.3657,1.3712,1.3717,1.3723,1.3777,1.3741,1.3744,1.3746,1.3868,1.387,1.3871,0,0,0,0,0,0,1.3535,1.3545,1.3628,1.3591,1.3601,1.3623,1.3646,1.3648,1.3663,1.3687,1.369,1.3669,1.3711,1.3719,1.3759,1.3779,1.3746,1.3749,1.3867,1.3869,1.3871,1.3885,0,0,0,0,0,0,1.3532,1.3544,1.3562,1.3591,1.3603,1.3664,1.3647,1.365,1.3669,1.3668,1.3698,1.3702,1.3711,1.3754,1.3763,1.3783,1.3752,1.3865,1.3868,1.387,1.3883,1.3887,1.3891,0,0,0,0,0,1.3528,1.3564,1.3563,1.3573,1.3626,1.3665,1.3672,1.3682,1.367,1.3688,1.3703,1.3701,1.3775,1.3758,1.3768,1.379,1.3864,1.3867,1.387,1.3881,1.3887,1.3891,0,0,0,0,0,0,1.3536,1.3568,1.3567,1.3614,1.3637,1.3665,1.3688,1.3687,1.3714,1.3712,1.3723,1.3729,1.377,1.3784,1.3764,1.3834,1.3818,1.3823,1.3824,1.3829,1.3833,1.3829,1.3755,0,0,0,0,0,1.3543,1.3572,1.3598,1.3637,1.3648,1.3666,1.3683,1.3689,1.3713,1.3723,1.3741,1.3764,1.3792,1.3811,1.3839,1.3884,1.3891,1.3904,1.3908,1.3911,1.3916,1.394,1.3946,1.3881,1.3881,1.3881,0,0,1.3558,1.3579,1.3597,1.3639,1.3658,1.3687,1.3674,1.3706,1.3728,1.3728,1.3767,1.3781,1.3807,1.3851,1.3871,1.3863,1.3935,1.3915,1.3917,1.392,1.3944,1.395,1.3955,1.3883,1.3882,1.3882,0,0,1.3601,1.362,1.3654,1.3673,1.3701,1.3712,1.372,1.3748,1.3757,1.3797,1.3797,1.3822,1.3872,1.389,1.3906,1.3954,1.3953,1.3963,1.3984,1.4008,1.4013,1.4018,1.4035,1.4041,1.3967,1.3967,1.3967,0,1.3616,1.3662,1.3671,1.3704,1.3722,1.3722,1.3756,1.3773,1.3809,1.3821,1.3812,1.3873,1.3891,1.3938,1.395,1.3963,1.3972,1.396,1.4012,1.4016,1.4021,1.4037,1.4044,1.3968,1.3968,1.3968,1.3968,0,1.3679,1.371,1.3734,1.3769,1.3789,1.3822,1.3836,1.3855,1.3858,1.387,1.391,1.3931,1.3963,1.3974,1.3978,1.4022,1.4016,1.4009,1.3994,1.4028,1.4044,1.405,1.397,1.3969,1.3969,1.3969,0,0,1.373,1.3769,1.3777,1.3793,1.3823,1.3847,1.3879,1.391,1.3926,1.395,1.3977,1.4018,1.4012,1.403,1.4035,1.4056,1.4092,1.4046,1.4047,1.4054,1.4141,1.4147,1.4154,1.4091,1.4092,1.4093,1.4139,0,1.3777,1.3835,1.3844,1.3894,1.3923,1.3923,1.3951,1.3972,1.3983,1.4008,1.402,1.4049,1.4038,1.4049,1.407,1.4083,1.411,1.408,1.4116,1.4117,1.411,1.4162,1.4168,1.4211,1.4145,1.4146,1.4147,0,1.3839,1.3865,1.3919,1.3944,1.3956,1.3982,1.401,1.4034,1.4058,1.4064,1.4084,1.4086,1.4118,1.4101,1.4145,1.4125,1.4139,1.4148,1.415,1.4154,1.4135,1.4168,1.4225,1.4231,1.4157,1.4156,1.4155,0,1.3871,1.3919,1.3957,1.397,1.4001,1.4018,1.4032,1.4054,1.4072,1.4096,1.4108,1.4136,1.4151,1.4172,1.4181,1.4168,1.4225,1.4208,1.4231,1.4231,1.4244,1.4243,1.4304,1.4253,1.4252,1.4252,1.4252,0,1.3923,1.3956,1.3972,1.3996,1.4032,1.4041,1.4077,1.4089,1.4109,1.4134,1.4135,1.4159,1.4169,1.4194,1.4202,1.4237,1.4244,1.425,1.4251,1.425,1.4249,1.4261,1.4258,1.4254,1.4254,1.4253,1.4253,0,1.3965,1.3978,1.4019,1.4045,1.4051,1.4077,1.4098,1.4121,1.4131,1.4163,1.4171,1.4187,1.4217,1.4228,1.4264,1.4268,1.4309,1.4308,1.4302,1.4302,1.4325,1.4323,1.4396,1.4406,1.4347,1.4347,1.4348,0,1.3998,1.4023,1.4051,1.4068,1.4082,1.411,1.4128,1.4136,1.4155,1.4183,1.4202,1.4231,1.4255,1.4301,1.4316,1.4343,1.4343,1.4367,1.4347,1.4345,1.4344,1.4342,1.4345,1.4371,1.4371,1.4372,1.4372,0,1.4054,1.4058,1.4085,1.4113,1.4134,1.4156,1.4178,1.4192,1.4204,1.4224,1.4254,1.4273,1.4309,1.4338,1.4365,1.4378,1.4377,1.4378,1.4385,1.4384,1.4379,1.4382,1.4312,1.4376,1.4376,1.4376,1.4375,1.4375,1.4093,1.4115,1.4138,1.4166,1.4183,1.4203,1.4225,1.4238,1.4264,1.4294,1.4297,1.433,1.4351,1.4388,1.4402,1.4426,1.442,1.443,1.4432,1.4435,1.4436,1.4374,1.4431,1.4431,1.4431,1.4431,1.4431,0,1.4149,1.4163,1.4189,1.422,1.4242,1.4239,1.4262,1.4281,1.4309,1.4329,1.4353,1.4387,1.4414,1.443,1.4458,1.4474,1.4474,1.4481,1.448,1.4483,1.4441,1.4432,1.4481,1.4481,1.4481,1.4481,1.4481,1.4481,1.4181,1.4218,1.4225,1.427,1.4284,1.4316,1.433,1.4348,1.4364,1.4402,1.4425,1.4435,1.4453,1.4482,1.4507,1.451,1.4521,1.4528,1.4532,1.4492,1.4486,1.4482,1.4474,1.453,1.453,1.4572,1.4573,1.4573]}]]